Tracking 29892 objects as of 21-Nov-2024
HD Live streaming from Space Station
objects crossing your sky now

STARLINK-2251

Track STARLINK-2251 now!
10-day predictions
STARLINK-2251 is classified as:


NORAD ID: 48594
Int'l Code: 2021-041AT
Perigee: 553.5 km
Apogee: 555.1 km
Inclination: 53.1 °
Period: 95.6 minutes
Semi major axis: 6925 km
RCS: Unknown
Launch date: May 15, 2021
Source: United States (US)
Launch site: AIR FORCE EASTERN TEST RANGE (AFETR)
Your satellite tracking list
Your tracking list is empty




NASA's NSSDC Master Catalog

Two Line Element Set (TLE):
1 48594U 21041AT  24325.30014160  .00001289  00000-0  10538-3 0  9999
2 48594  53.0533  81.3183 0001181  58.4199 301.6905 15.06420695193984
Source of the keplerian elements: AFSPC